Grizzly Air Cargo 5367


PACD
Cold Bay Airport
Cold Bay, Alaska, US
PANC
Ted Stevens Anchorage International Airport
Anchorage, Alaska, US

Activity Log

Date Flight Route Aircraft Duration
No Flights Yet

Route Details

Aircraft Information
Primary: Boeing 727-200F
Backup: Boeing 737-800BCF
Route Data
Distance: 623nm
Sched. Duration: 1h 50m
Avg. Duration: 0h 00m (-150m)
Times Flown: 0
Recm'd Route: CDB J115 TED
Planned Altitude: 31,000ft
Origin Wx: PACD 190053Z 30013KT 10SM OVC036 M03/M08 A2962 RMK AO2 SLP031 T10281078 $
Dest. Wx: PANC 190131Z 34007KT 10SM -RA SCT010 BKN025 OVC050 01/M01 A2890 RMK AO2 P0001 T00111011
Notes:

Financial History
Total Freight: 0lbs
Average Load: 0lbs/flt
Fuel Used: 0lbs
Avg. Fuel Used: 0lbs/flt
Fuel Expense: $0
Avg. Fuel Expense: $0
Avg. Fuel Cost: $0/lbs
Total Gross Income: $0
Pilot Pay: $0
Total Expenses: $0
Total Revenue: $0
Average Revenue: $0